EHI
0 0 0 0 0 0 0 0 2 4 8 12 17 23 27 30 36 42 45 49 60 68 72 73 73 71 65 59 55 53 52 50 50 49 48 46 42 37 36 37 39 41 40 39
0 0 0 0 0 0 0 0 2 6 10 14 18 24 29 32 35 39 43 50 60 67 70 72 73 70 64 57 53 51 49 48 47 47 47 46 41 36 36 37 37 37 36 35
0 0 0 0 0 0 0 0 2 6 11 16 22 28 33 36 36 37 42 52 61 65 66 69 70 66 59 52 48 46 46 45 45 45 47 45 39 35 36 36 34 33 32 32
0 0 0 0 0 0 0 1 3 6 11 18 24 30 35 38 40 42 47 55 60 60 60 63 63 57 49 43 41 41 42 42 42 44 45 41 36 33 34 34 32 32 33 33
0 0 0 0 0 0 1 3 7 9 13 19 24 28 35 41 45 48 53 57 56 52 53 58 57 51 43 37 36 36 38 38 39 41 40 36 33 32 31 30 30 31 32 32
0 0 0 0 0 0 2 5 10 14 16 20 24 29 37 44 49 52 55 55 52 48 50 56 58 54 45 37 34 34 34 34 35 37 34 31 31 31 30 28 28 28 27 26
1 0 0 0 1 5 9 14 16 18 22 26 29 33 39 45 50 53 52 50 48 47 50 54 57 56 49 41 37 34 33 33 33 33 30 25 25 27 27 26 25 24 22 20
2 3 5 7 9 15 23 25 21 22 26 30 32 32 36 43 46 46 45 42 41 44 46 49 51 50 45 39 34 31 31 30 28 28 25 22 22 23 24 24 21 19 18 17
8 10 16 20 21 24 27 26 22 22 24 25 26 28 33 40 42 40 38 36 37 39 40 41 41 39 34 30 27 26 26 25 24 23 23 23 22 22 22 21 18 17 17 17
16 18 23 25 25 23 22 20 18 18 18 17 20 27 35 40 42 40 36 35 37 38 36 34 32 27 23 22 22 22 21 21 21 21 22 23 22 20 19 18 16 15 16 16
19 20 22 23 21 20 19 18 15 14 13 13 19 29 36 41 42 40 38 38 39 39 37 32 29 24 19 19 19 19 19 18 18 17 18 19 16 13 11 10 10 10 11 12
20 19 19 20 17 16 17 16 14 13 11 12 18 26 32 36 38 37 36 37 37 38 37 33 28 24 20 18 17 17 18 17 14 14 15 15 11 7 4 3 3 3 5 6
20 19 17 16 14 13 14 14 11 10 9 11 17 23 27 29 30 30 30 30 30 31 32 29 25 22 20 18 17 18 18 17 13 12 14 14 11 7 5 3 2 1 1 1
16 17 17 17 16 14 12 9 7 6 8 13 19 22 23 23 23 25 26 23 21 22 23 23 20 19 20 20 19 20 19 17 15 13 13 13 11 9 9 8 6 3 1 0
13 15 17 17 16 13 9 5 4 5 10 16 20 21 21 20 20 21 21 20 18 17 17 19 19 20 21 21 20 20 18 16 15 13 11 11 10 9 9 9 7 6 3 1
9 11 12 11 10 8 5 5 6 8 12 17 18 18 18 18 17 16 15 15 16 17 17 17 18 20 21 20 18 17 15 13 13 12 10 9 8 7 8 7 6 6 4 4
6 7 6 5 4 4 4 7 9 11 14 15 14 15 16 17 15 14 13 13 15 18 18 16 15 16 19 18 16 14 12 10 9 10 10 8 6 6 6 5 4 4 4 4
5 5 4 3 3 4 6 8 10 11 12 11 12 13 14 14 13 12 10 10 13 17 18 15 12 11 14 15 14 13 10 8 8 9 9 7 5 5 5 5 4 3 2 2
4 4 4 4 3 4 6 8 9 9 9 9 10 11 11 11 11 9 7 7 10 14 15 12 8 6 8 10 12 12 11 9 8 8 8 6 4 4 4 4 3 2 1 1
3 3 4 5 3 2 5 7 8 7 6 6 6 7 8 9 8 7 6 5 6 9 9 7 4 3 5 6 8 10 11 10 8 7 6 4 2 2 2 3 2 1 1 2
4 3 3 3 2 1 2 5 7 6 4 3 2 2 5 6 6 7 7 5 4 5 4 3 3 3 3 4 5 7 9 8 7 6 5 3 1 2 3 3 2 2 2 3
4 3 2 1 1 0 1 2 4 4 3 1 0 0 2 3 3 4 5 4 2 2 2 2 2 2 2 2 4 5 5 6 6 5 4 2 2 3 5 3 2 3 3 4
4 2 1 0 0 1 1 1 1 1 1 1 0 0 0 1 1 1 2 2 1 1 2 2 1 0 0 1 1 2 2 2 3 3 2 2 3 4 5 3 2 3 4 3
3 1 0 0 0 1 2 1 1 1 0 0 0 0 0 0 0 0 0 0 0 1 2 2 0 0 0 0 0 0 0 0 1 1 1 1 1 2 2 2 2 3 2 1
1 1 1 1 1 2 3 3 2 2 1 0 0 0 0 0 0 0 0 0 0 1 1 1 0 0 0 0 0 0 0 0 0 0 0 0 0 1 1 1 2 2 1 0
0 0 1 2 2 2 2 2 2 2 1 0 0 0 0 0 0 0 0 0 0 0 0 0 0 0 0 0 0 0 0 0 0 0 0 0 0 1 0 0 1 1 0 0
0 0 1 1 1 1 1 1 1 1 0 0 0 0 0 1 1 1 0 0 0 0 0 0 0 0 0 0 0 0 0 0 0 0 0 0 0 1 0 0 0 0 0 0
Wind_Speed
14 13 12 13 16 17 16 14 12 10 9 10 9 8 8 8 8 8 8 8 8 8 7 7 7 6 5 5 5 4 4 3 3 3 2 2 2 2 1 1 1 1 1 1
14 15 13 12 14 15 16 14 13 10 5 5 8 8 7 8 8 8 8 8 9 8 7 7 6 6 5 4 4 4 4 3 3 3 2 2 2 2 2 2 2 1 2 2
12 13 13 15 13 12 12 12 11 9 5 5 6 8 8 7 6 5 6 7 8 8 7 6 5 5 5 5 4 4 4 3 3 3 3 2 2 2 3 2 2 1 2 2
11 12 15 10 8 9 10 8 6 6 6 5 5 9 7 6 6 6 6 7 6 7 7 6 6 5 5 5 5 4 4 3 2 2 3 3 3 2 2 2 2 2 2 3
10 12 12 9 7 7 7 5 4 4 5 6 5 7 6 5 5 5 6 7 6 7 8 6 6 6 5 5 5 4 3 3 2 3 3 3 2 2 2 2 2 2 3 3
10 11 11 7 5 5 6 6 3 3 5 7 5 3 4 5 6 7 8 7 6 6 7 6 5 5 5 5 5 4 3 3 3 3 3 3 3 2 2 2 2 3 3 3
12 11 7 4 3 5 8 3 2 2 3 5 2 4 6 7 7 7 7 8 8 7 6 6 5 5 5 5 5 4 4 4 4 3 3 3 3 2 2 2 2 3 3 2
11 12 6 2 3 2 3 4 3 4 6 7 7 7 8 8 8 7 7 8 8 7 6 6 6 6 6 5 5 5 5 4 4 3 3 3 3 2 2 2 2 2 2 2
4 2 3 5 6 6 6 5 4 5 7 6 6 6 7 7 7 7 6 6 7 7 7 6 5 4 5 4 4 5 5 4 3 3 4 3 3 3 2 1 1 2 2 2
2 3 4 5 5 5 5 5 5 6 7 6 4 5 6 7 6 6 6 5 5 7 6 5 4 4 4 4 4 5 5 4 3 3 4 3 2 2 2 2 1 1 1 2
3 3 3 3 2 4 5 5 5 5 5 4 4 5 6 6 5 5 5 5 5 5 5 5 3 2 4 4 4 4 4 3 3 3 4 4 5 5 4 4 3 1 1 1
2 2 1 3 3 3 3 2 3 4 3 3 3 4 5 5 4 5 5 4 4 4 5 5 4 3 3 3 4 4 3 3 2 3 3 3 4 5 9 6 6 7 5 3
1 1 0 0 1 2 3 2 1 1 1 1 3 4 4 4 4 4 4 4 4 4 4 4 4 3 3 3 3 3 2 2 2 2 3 3 3 3 3 3 5 7 6 5
2 1 2 2 1 0 1 1 0 1 1 2 3 3 4 4 3 3 3 3 4 4 4 4 4 3 3 3 3 3 3 2 2 2 2 3 3 3 3 3 3 3 3 3
0 1 2 1 2 1 1 2 3 3 3 3 3 3 3 3 3 3 2 3 3 3 3 3 3 3 2 2 3 3 3 2 2 2 2 2 2 2 2 3 3 3 3 2
1 1 2 2 2 3 3 4 4 4 3 2 3 3 3 3 3 2 2 2 3 3 3 3 3 3 4 3 4 3 2 2 1 2 2 2 2 2 2 2 3 3 3 3
2 3 4 4 3 4 5 4 3 3 3 2 2 3 3 3 3 3 2 2 3 3 3 3 3 3 3 4 4 3 3 3 4 3 2 2 2 2 2 3 2 2 3 4
3 4 4 4 4 5 4 3 3 4 3 3 2 3 3 3 3 3 2 2 2 3 3 3 3 3 3 3 3 3 3 3 3 3 2 2 2 2 2 2 3 3 3 4
3 4 4 4 4 4 4 4 4 3 3 3 4 4 3 3 3 3 3 2 3 3 3 3 3 4 4 3 3 3 3 4 4 3 2 2 3 3 3 3 3 3 3 4
3 4 4 5 5 4 4 4 4 3 3 4 4 4 4 4 4 4 4 4 4 3 3 3 5 5 5 4 5 4 4 4 4 4 4 4 4 3 3 3 3 2 3 3
3 3 4 4 4 4 4 4 3 3 3 4 5 5 5 4 4 4 4 4 3 3 3 4 4 4 3 3 5 5 4 4 4 4 4 3 3 3 3 2 2 2 3 3
2 3 4 4 4 4 3 3 3 4 4 4 5 5 5 5 5 4 3 3 3 3 4 4 4 3 2 3 4 4 4 4 4 4 3 3 3 2 2 2 2 2 2 2
2 2 3 3 4 4 4 4 4 4 4 4 4 5 4 3 3 4 3 3 3 4 4 2 3 4 4 4 4 4 4 4 4 3 3 3 3 3 3 3 2 2 2 2
3 3 3 4 4 4 4 4 3 3 4 4 4 4 3 3 3 3 3 3 4 5 3 4 7 6 5 4 4 4 4 4 4 4 4 4 4 4 3 3 2 2 2 3
4 4 4 4 4 3 3 3 3 3 4 3 4 4 4 3 4 3 3 3 4 5 4 6 8 7 5 4 4 4 4 4 4 4 4 4 3 3 3 3 2 3 2 2
4 4 3 3 3 2 3 3 3 3 4 4 4 3 3 3 4 3 3 4 6 5 5 5 6 7 6 5 4 4 3 4 5 5 4 3 3 2 2 2 3 3 3 3
4 3 3 3 3 3 3 4 4 4 3 3 3 3 3 3 3 3 4 4 4 5 5 5 6 6 5 5 4 4 3 3 3 3 3 3 2 3 3 3 3 3 3 3
Wind_Direction
257 255 239 218 218 227 235 241 246 238 210 184 159 160 149 138 138 135 138 139 131 126 124 124 123 121 121 128 129 135 133 134 126 128 134 135 137 125 110 96 91 61 70 85
249 250 248 242 227 226 228 232 239 248 226 169 143 144 137 138 146 151 157 155 144 137 130 128 128 128 121 116 119 119 120 123 123 132 131 129 125 120 114 99 80 68 80 80
247 243 243 238 235 235 237 229 230 231 203 162 155 137 136 135 146 165 165 150 140 136 130 127 127 119 122 120 116 116 115 116 121 130 126 120 121 101 92 92 89 72 65 81
245 242 238 238 233 240 243 240 225 215 178 167 135 123 124 136 151 159 142 133 127 129 125 125 122 122 122 119 113 108 106 103 102 112 108 100 96 96 104 103 95 86 78 77
242 236 236 231 222 226 232 233 233 203 150 129 128 126 120 114 124 125 117 111 115 125 128 123 125 126 125 125 119 114 111 104 98 99 100 100 99 93 88 92 96 93 87 81
240 240 236 230 220 219 213 208 199 193 149 144 173 189 118 92 93 107 113 111 113 117 115 113 112 118 120 117 109 106 105 101 96 92 101 105 96 86 89 95 95 92 81 76
238 244 239 230 216 210 212 185 132 150 137 140 130 92 105 106 99 103 109 112 108 103 102 99 99 101 101 97 89 87 89 89 84 88 102 101 96 98 100 101 100 101 99 86
233 242 233 200 196 171 100 85 90 95 98 96 95 106 113 112 111 107 108 115 113 108 98 92 95 102 103 99 93 90 88 86 82 79 89 102 105 109 111 119 118 120 117 112
230 215 93 69 85 103 117 107 99 98 99 100 102 110 119 118 117 112 108 116 118 115 109 102 99 105 114 115 114 110 105 101 99 88 78 87 105 116 126 133 133 133 136 118
159 132 107 98 97 108 112 113 103 101 103 103 118 115 114 116 117 118 118 109 112 117 115 114 111 109 118 123 124 122 120 119 117 109 98 79 60 75 74 50 71 89 93 96
166 169 145 122 115 102 94 94 99 94 103 112 105 114 117 119 122 122 119 117 114 115 118 114 104 117 127 129 133 130 130 133 134 119 104 84 62 40 53 53 35 29 63 89
183 194 203 143 140 126 119 120 111 110 100 94 103 115 114 113 118 121 121 121 128 130 129 131 144 139 123 130 137 140 143 147 142 129 126 122 109 82 51 61 60 55 60 81
93 41 36 113 135 135 133 113 76 115 145 122 116 119 119 117 114 124 131 137 138 140 140 138 139 134 134 135 142 146 146 144 147 140 144 148 145 138 125 86 65 57 58 77
62 79 197 193 153 176 157 150 123 306 264 149 131 135 131 128 130 134 136 137 135 140 142 144 140 137 144 158 161 165 171 164 175 167 166 164 157 158 159 153 137 109 74 81
251 244 242 199 164 192 197 203 202 219 217 173 154 152 145 144 140 135 137 141 143 149 149 154 153 145 145 178 183 195 195 184 188 184 170 162 164 164 157 154 143 133 130 120
195 254 277 258 231 236 237 227 225 222 212 197 165 156 159 161 153 148 149 158 163 171 163 161 163 165 168 195 194 194 182 166 202 208 198 183 176 176 172 166 158 153 147 148
204 214 236 243 247 250 247 244 240 227 212 214 190 166 168 177 171 173 176 173 169 167 172 180 180 183 195 205 205 199 187 175 190 208 207 199 193 186 176 174 168 161 154 157
235 239 241 252 261 264 262 248 235 227 212 211 206 197 202 199 195 187 177 168 169 172 183 202 197 194 206 214 220 214 201 187 187 202 198 204 208 191 183 182 180 173 158 158
243 253 255 253 259 266 268 261 243 230 219 208 213 215 211 206 195 190 190 192 197 202 199 194 195 202 209 207 218 213 211 200 196 197 196 191 214 207 199 197 191 186 173 166
253 256 256 254 252 253 257 251 241 226 215 207 212 217 214 210 202 199 200 216 225 216 184 190 202 207 209 207 219 218 210 210 207 202 200 204 211 210 204 200 196 196 178 175
255 258 261 258 256 257 259 255 251 241 223 211 215 218 214 211 210 209 214 225 190 173 186 196 217 219 213 208 214 221 212 211 213 209 207 212 218 219 211 194 198 206 190 179
278 276 276 276 271 269 267 258 244 236 231 224 224 222 216 213 215 219 223 219 203 191 206 210 212 189 183 220 227 225 218 213 213 209 203 209 216 213 207 204 206 202 184 165
271 263 270 276 276 272 264 253 245 242 232 229 227 216 216 228 229 222 218 202 200 200 216 211 163 156 181 221 231 228 223 222 225 220 212 211 209 203 203 208 200 183 167 157
277 264 260 264 267 259 248 244 240 239 231 230 228 218 208 218 232 231 217 197 199 196 202 163 168 176 202 230 234 227 219 216 222 220 210 210 209 201 194 190 179 159 151 154
266 261 258 256 252 252 246 236 232 228 220 218 218 216 221 224 231 225 207 202 189 181 185 177 181 189 210 232 234 227 216 210 215 218 213 214 212 198 181 172 162 148 141 134
256 254 252 250 249 249 240 231 224 220 218 217 210 208 208 202 207 202 195 198 191 193 198 182 185 196 217 224 222 220 210 195 201 212 211 210 203 180 156 150 140 135 132 124
246 249 245 245 243 239 240 243 238 224 214 214 211 210 206 192 193 194 195 195 197 197 196 193 194 199 205 209 206 204 208 212 207 205 194 195 174 147 140 139 136 132 129 128